Theta_e
331 328 331 324 325 322 319 319 303 309 306 294 294 296 292 301 301 299 300 303 299 304 305 306 304 305 303 301 304 304 305 302 303 298 300 319 329 338 341 337 339 342 345 349 349 351 351 350 353 354 353 352 352 351 351 350 350 350 350 349 349 348 348 348 347 347 346 346 347 348 348 348 348 348 348 348 347 347 346 345 344 344 344 344 344 345 344 343 340 339 338 337 335 336 336 337 337
324 322 323 323 324 324 316 315 306 301 299 292 293 295 296 300 299 298 298 300 301 303 304 304 305 304 306 306 305 306 305 307 309 309 319 328 331 333 340 339 341 342 344 348 350 350 351 351 350 353 353 352 352 351 350 351 351 350 349 349 348 348 348 347 346 347 345 346 347 346 347 347 347 348 348 348 347 346 345 344 344 343 343 343 343 343 343 342 339 338 336 336 336 335 334 335 335
322 321 323 321 322 319 315 314 301 298 294 288 292 294 298 297 296 298 301 302 304 305 305 305 306 306 306 306 306 304 299 310 312 318 318 327 325 326 334 340 337 345 344 348 348 348 350 349 347 352 352 352 352 351 350 351 350 350 349 349 348 348 347 347 346 346 345 346 346 346 346 347 347 347 347 347 347 346 345 344 343 342 342 342 342 342 341 341 337 334 332 334 335 334 335 335 335
327 325 323 319 315 319 310 306 303 297 293 291 291 297 297 297 297 300 302 303 303 304 305 304 302 305 304 303 304 307 306 308 314 316 315 323 325 329 332 339 335 341 343 346 347 348 350 347 348 352 351 352 351 350 350 350 350 350 349 349 348 347 347 346 346 345 345 346 346 346 346 346 347 346 347 346 346 345 344 343 343 342 342 342 341 342 341 338 337 334 332 332 333 332 333 334 334
323 327 327 319 318 314 310 305 299 297 292 294 290 297 298 299 299 301 302 302 303 302 303 305 302 306 307 305 307 302 301 312 315 319 324 327 333 335 337 339 338 340 343 344 345 348 350 346 349 351 350 351 351 350 351 351 349 350 350 350 348 347 347 346 346 345 345 346 346 346 346 346 345 347 347 346 345 344 343 341 341 341 341 341 341 341 340 337 336 335 332 332 332 331 331 332 334
327 325 328 322 312 317 308 299 299 294 297 300 294 296 299 300 300 301 302 303 303 302 303 303 302 303 303 305 308 303 310 302 313 320 325 329 334 338 335 336 335 338 341 344 345 351 349 345 348 352 351 349 351 350 350 350 349 349 350 349 348 347 346 346 346 345 345 346 345 346 345 346 346 347 346 345 344 343 341 341 341 340 340 340 340 340 339 337 336 334 332 331 330 331 330 331 333
320 316 320 322 317 317 306 299 295 295 297 300 297 298 299 300 301 301 302 302 304 303 305 302 305 303 300 305 309 313 317 315 314 324 330 333 336 338 341 336 336 336 341 343 349 351 349 345 350 352 351 350 349 350 349 349 348 349 350 348 347 346 346 346 346 345 346 345 346 346 346 346 346 345 345 344 343 342 341 341 340 340 339 339 338 339 339 337 335 334 333 331 329 330 330 330 332
326 316 318 310 307 304 302 298 297 297 297 301 301 300 301 302 303 303 301 301 300 300 303 304 303 301 299 304 303 313 324 328 328 330 330 331 335 337 339 338 333 334 338 344 349 347 345 345 350 351 351 350 350 350 349 349 349 350 350 348 347 346 346 346 346 346 345 345 345 346 344 344 345 344 344 344 343 342 341 341 340 340 339 338 338 338 337 336 335 334 332 329 327 328 328 330 331
322 316 320 312 303 304 298 296 296 299 298 300 300 304 307 303 303 303 301 303 302 303 302 302 302 298 299 304 303 310 321 324 327 331 331 332 334 335 338 339 339 339 341 345 348 347 346 341 347 350 350 351 350 349 349 349 348 348 350 349 348 347 346 346 345 345 345 345 345 346 345 345 345 345 344 344 343 341 341 341 340 339 338 338 338 338 336 336 335 334 331 328 327 326 326 328 329
313 311 306 308 306 300 298 295 295 297 298 300 300 301 302 304 303 303 302 301 301 303 302 304 302 300 301 302 303 305 306 314 319 324 332 332 333 334 335 336 339 340 340 341 347 348 345 343 342 346 348 350 350 350 349 348 346 346 348 347 347 347 346 346 346 345 345 345 345 344 344 343 343 342 342 343 341 341 341 340 340 338 339 338 338 337 336 335 335 333 332 329 326 324 323 325 327
309 312 313 305 299 297 298 295 296 299 298 300 300 303 303 302 304 303 302 301 304 301 302 303 303 300 301 303 302 311 307 309 313 315 327 333 331 333 333 335 337 339 340 341 343 346 345 343 338 338 344 347 349 350 349 348 347 347 347 348 347 348 348 347 346 345 344 345 344 345 344 344 343 342 340 341 341 341 341 340 339 338 338 338 337 336 335 334 334 333 332 329 326 323 320 321 325
307 306 309 300 298 296 296 295 297 297 299 299 298 302 302 304 304 301 302 300 301 302 301 303 300 303 300 302 304 304 307 306 307 316 322 331 332 332 333 333 336 336 338 339 340 343 345 343 342 338 336 340 343 346 347 347 347 347 347 347 348 348 348 347 347 347 345 345 345 344 343 342 342 342 341 340 340 340 340 339 338 338 338 337 336 335 334 333 332 332 331 329 326 323 319 319 322
311 308 301 298 297 295 296 296 297 297 297 297 298 302 302 303 302 301 301 301 301 301 301 303 304 305 300 301 304 305 305 306 308 313 322 325 332 334 334 334 335 336 337 336 338 338 342 343 344 343 337 333 336 340 340 343 345 346 346 346 347 347 347 348 348 347 347 346 346 344 343 343 343 341 340 340 341 340 339 338 338 338 337 336 335 335 334 333 332 331 330 329 327 325 321 317 318
313 307 305 300 300 296 295 297 296 295 294 297 300 302 304 302 302 302 300 300 301 300 304 306 305 303 302 302 303 302 303 307 308 314 322 328 330 333 335 333 333 332 333 336 336 336 336 338 342 344 342 342 345 337 334 338 342 344 345 344 343 345 345 347 346 347 347 346 344 342 341 341 341 341 339 339 340 340 339 339 338 337 337 336 335 334 333 332 331 330 329 328 327 325 322 318 316
311 308 305 301 296 296 299 295 296 295 294 299 302 302 302 303 304 303 302 299 301 305 305 306 307 304 297 300 300 301 304 307 309 318 325 327 328 330 333 334 333 331 330 333 334 333 334 335 337 341 344 345 345 345 345 340 336 339 341 341 340 342 343 342 342 343 341 340 339 337 337 336 335 335 335 335 337 336 335 333 337 337 336 336 335 334 333 331 331 330 329 328 326 325 322 319 315
313 307 306 300 295 294 296 297 298 296 294 299 303 302 302 302 304 302 303 303 303 309 306 301 306 301 303 302 302 304 306 309 310 317 321 324 327 329 331 332 330 331 329 330 332 334 335 334 336 336 339 344 342 343 343 344 334 334 338 338 339 339 339 339 339 338 332 330 331 331 330 332 329 329 327 332 332 334 332 332 334 337 336 335 335 334 333 332 331 329 329 328 326 324 321 318 316
314 312 300 296 295 294 297 298 296 292 297 299 302 302 300 300 304 303 306 306 301 304 303 304 303 306 302 303 304 306 307 311 312 313 315 316 321 319 312 313 324 324 331 328 329 331 331 333 333 335 336 338 340 341 342 345 339 332 333 332 332 335 336 335 336 327 322 321 323 322 324 334 336 333 331 334 326 332 325 326 332 335 336 335 335 334 333 332 331 330 328 327 326 323 318 317 317
314 306 300 296 295 293 297 297 298 299 298 298 301 300 301 301 302 303 305 302 301 303 302 303 305 304 305 306 307 308 309 310 310 310 309 309 309 307 308 309 309 310 312 314 315 318 327 333 332 333 335 335 338 341 343 346 339 336 341 339 336 333 329 328 332 336 332 332 323 326 335 338 338 336 335 332 332 331 326 324 327 331 335 334 334 334 333 332 331 329 329 328 327 323 319 307 307
305 299 297 294 295 297 299 300 300 298 298 301 301 301 299 299 301 302 299 300 300 300 301 303 302 304 305 306 306 307 308 308 309 309 309 308 308 308 307 309 309 310 311 312 313 314 315 316 331 333 333 335 336 337 341 342 342 342 342 341 339 334 334 335 339 338 339 339 337 337 336 337 335 338 336 333 333 325 328 323 325 329 332 332 331 333 333 332 331 331 329 328 326 327 314 314 312
305 300 297 296 299 297 300 302 300 301 301 300 301 301 300 301 301 304 300 298 300 298 297 299 301 302 303 304 305 306 307 308 308 308 308 308 309 308 308 308 308 309 311 311 314 318 317 316 316 319 333 334 334 335 338 337 342 344 341 341 340 340 339 338 341 340 338 337 340 340 337 336 335 336 329 326 327 330 327 322 324 325 327 326 326 328 330 331 332 332 331 329 326 319 316 315 315
304 300 296 299 298 297 299 301 302 301 301 300 300 301 299 302 302 302 300 297 299 299 300 299 300 301 302 303 304 305 306 306 307 307 307 307 308 309 308 308 308 309 311 313 314 316 316 316 317 316 321 332 333 335 334 335 336 337 339 341 341 340 340 339 340 339 338 338 337 336 337 336 336 335 333 331 331 332 330 329 328 326 325 324 323 326 325 326 325 323 322 321 318 318 317 316 317
304 298 299 300 299 298 301 302 301 301 301 300 301 298 300 302 302 301 300 296 296 298 300 301 302 302 302 302 304 305 305 305 305 306 306 306 307 308 308 308 310 310 312 311 312 313 315 316 317 317 317 327 332 334 334 334 336 335 337 340 340 338 337 337 336 336 336 337 336 334 334 336 335 335 335 334 334 333 330 329 329 328 327 327 326 328 326 325 325 325 323 321 319 320 319 317 316
298 300 300 301 300 299 303 302 301 301 301 302 299 301 301 301 300 302 301 300 299 301 302 302 302 303 303 304 304 303 303 304 304 305 305 305 306 307 308 308 308 308 309 311 312 313 315 317 317 316 315 318 332 333 335 334 334 335 337 337 336 336 338 337 336 336 336 336 335 334 334 333 334 332 332 334 332 332 331 330 330 329 329 328 327 327 327 326 326 327 324 321 320 319 317 316 316
302 297 301 300 302 301 303 301 301 300 300 300 302 302 300 299 297 300 300 300 302 302 303 302 303 303 304 303 303 303 303 303 304 305 306 305 306 307 307 307 308 309 310 311 312 313 314 315 317 317 315 317 330 332 333 333 334 333 335 335 336 333 334 335 336 335 337 336 334 335 333 334 333 330 331 332 332 332 331 332 332 331 331 328 328 329 328 328 329 326 324 320 319 318 318 317 315
299 298 301 301 301 301 302 300 300 301 300 301 302 299 299 300 300 300 299 300 301 302 302 302 302 303 302 302 302 302 302 303 303 305 307 305 306 307 308 308 308 309 310 311 312 313 314 315 317 318 314 318 327 331 331 332 332 334 334 332 330 327 329 330 332 334 335 336 336 334 331 332 332 332 331 333 332 331 331 329 329 330 329 329 329 329 329 329 329 327 324 323 320 318 318 316 316
300 300 301 302 301 302 301 301 301 300 302 301 299 298 300 301 300 299 299 301 301 302 301 302 302 301 301 301 301 301 301 302 303 303 304 305 305 305 305 306 307 307 309 310 310 312 313 314 318 321 318 322 327 330 330 330 329 328 328 327 325 323 324 325 326 326 327 329 330 331 330 330 331 330 330 331 330 327 327 328 327 327 326 325 326 325 325 325 326 325 324 322 323 322 320 317 317
301 300 301 300 301 301 302 300 302 301 302 300 298 298 299 299 299 294 299 301 302 301 301 301 301 300 300 301 301 301 301 301 302 303 303 304 303 303 304 305 305 306 308 307 308 310 312 314 318 322 323 325 328 327 326 325 324 324 324 323 321 321 320 320 321 321 322 323 325 327 328 327 327 326 324 325 326 324 322 322 322 322 321 322 323 323 323 323 322 322 322 321 321 321 319 317 316
302 301 299 300 300 301 301 301 301 301 300 300 300 298 299 299 299 295 298 300 301 301 300 300 300 299 299 300 300 301 301 302 301 301 301 300 301 301 303 304 304 305 306 306 307 310 313 315 321 323 324 325 324 323 322 322 322 321 321 320 318 318 317 317 317 318 318 320 321 321 323 325 324 324 322 321 322 321 320 319 319 318 318 320 320 320 320 321 320 320 321 321 320 321 320 318 317
301 300 296 299 300 300 301 300 301 300 299 300 301 297 295 295 295 297 300 301 301 301 300 300 300 299 299 299 299 299 299 300 300 300 300 300 301 303 303 305 304 303 305 306 307 310 314 317 319 320 321 321 320 319 319 319 319 318 318 318 317 316 315 315 315 315 316 317 318 318 319 321 322 321 320 320 318 318 318 317 317 317 317 318 318 318 317 318 317 318 318 318 318 320 319 316 316
302 299 296 296 297 297 301 302 299 298 299 299 298 289 293 295 296 297 298 299 300 300 299 299 298 298 298 299 299 299 299 299 299 299 299 299 301 303 304 304 304 304 304 306 307 311 313 316 316 317 317 315 315 315 314 314 314 314 313 312 312 313 312 311 311 312 312 313 314 315 317 318 319 319 319 319 319 318 317 316 316 317 317 317 318 317 316 315 315 314 314 315 315 316 315 313 311
295 300 298 293 292 292 299 300 298 297 299 299 299 290 291 295 296 298 298 299 299 298 298 298 299 298 298 299 298 298 298 298 298 299 300 301 301 303 304 303 304 304 304 305 307 311 312 312 313 313 312 312 312 311 310 309 309 310 309 308 308 309 308 308 308 308 308 309 309 310 311 312 316 317 316 315 314 314 313 312 313 313 315 315 314 315 315 312 311 310 310 312 313 311 312 312 309
297 293 291 294 291 294 297 300 298 296 296 299 297 291 293 295 297 298 299 300 300 299 298 298 298 298 298 298 298 298 298 299 299 299 300 300 301 303 303 303 304 304 304 306 308 311 310 311 310 310 309 309 309 309 308 307 306 306 305 305 304 305 304 304 305 305 305 305 305 306 307 307 309 311 312 312 311 311 310 309 309 310 311 311 310 310 310 309 310 310 309 309 307 307 305 304 304
296 292 291 292 294 294 295 297 300 301 298 298 297 292 295 293 297 298 299 299 299 297 298 298 298 298 297 297 297 297 298 297 298 298 299 300 302 303 302 303 303 304 305 307 307 309 309 310 309 308 307 307 307 307 306 305 305 304 303 303 302 302 302 301 302 303 303 303 303 303 304 305 305 306 306 306 306 306 305 305 305 305 305 305 305 305 306 307 306 309 307 304 302 301 301 301 300
293 294 291 296 293 295 292 295 298 300 297 293 296 293 294 295 297 298 298 299 298 297 298 298 297 296 297 296 297 297 297 296 295 296 298 299 301 302 303 303 303 304 305 307 308 308 308 309 308 307 306 306 305 305 305 304 304 303 302 302 301 300 300 300 301 301 301 302 302 302 302 303 304 305 305 305 304 304 304 303 303 303 303 303 303 303 302 303 304 304 305 303 301 299 299 299 298
292 292 291 293 295 295 294 293 295 297 296 294 294 294 294 296 296 297 298 299 298 297 298 297 296 296 296 296 296 296 296 295 295 296 298 299 300 301 302 302 302 304 305 306 307 308 308 308 308 307 306 306 305 304 303 303 302 302 301 300 300 299 299 299 299 299 299 300 300 301 301 301 301 303 304 305 304 304 304 303 302 302 302 302 301 301 301 301 301 303 303 304 302 300 298 298 297
294 295 294 294 291 292 293 296 297 297 294 293 294 293 295 297 296 296 297 298 297 297 297 296 296 296 296 296 295 295 295 295 296 297 299 299 300 300 301 302 302 303 305 305 306 307 307 307 307 307 306 306 306 305 304 303 302 300 299 298 298 297 297 297 297 296 297 297 297 298 298 297 298 298 299 301 301 301 301 301 300 300 299 299 298 297 297 297 297 298 300 301 300 299 298 297 296
297 297 296 293 293 294 297 298 297 297 295 293 294 295 295 296 297 296 297 297 296 296 295 295 295 295 295 295 295 295 295 295 297 298 298 299 300 300 301 301 301 302 304 304 304 305 306 305 305 304 306 306 305 304 303 302 300 298 298 296 295 296 295 295 294 294 294 294 295 295 295 295 295 295 295 296 296 297 296 296 295 295 294 293 293 293 293 293 294 295 296 298 297 296 295 296 295
296 296 294 292 295 292 297 297 295 297 295 292 295 294 295 297 299 297 296 296 295 296 295 295 295 295 295 295 295 295 295 296 297 296 297 298 298 300 300 300 301 301 302 303 303 303 304 304 303 303 304 304 303 301 300 299 298 296 294 294 293 293 293 292 291 292 292 293 293 293 293 293 293 293 293 293 293 293 292 292 292 292 292 291 291 292 291 292 291 291 292 292 295 295 293 294 295
297 294 293 292 292 296 298 299 296 296 294 291 294 293 295 297 298 297 296 295 296 297 296 296 295 294 294 295 295 294 295 294 294 294 297 297 298 299 298 298 299 300 301 301 302 303 303 302 302 302 301 301 301 301 299 298 298 296 295 293 292 291 291 291 291 291 291 291 292 292 292 292 292 292 292 293 293 292 291 291 291 291 291 291 290 290 290 290 290 290 289 289 290 292 291 292 292
293 293 291 289 295 293 290 294 295 295 294 293 293 292 294 298 300 297 296 296 294 295 295 295 296 294 294 294 294 294 294 293 293 293 294 295 296 296 297 297 298 300 300 300 301 302 302 301 301 300 299 298 298 297 296 295 295 294 293 292 291 290 289 290 290 291 291 291 290 291 291 292 292 292 292 291 291 291 291 290 290 290 290 290 290 289 289 289 289 289 289 289 289 287 288 288 290
295 295 293 292 294 295 294 294 295 295 295 296 293 291 292 295 295 292 292 293 294 293 293 294 294 295 294 295 295 295 294 294 293 293 294 294 295 295 296 297 298 297 298 299 300 301 301 301 301 300 299 298 297 295 294 293 293 292 292 291 291 290 290 289 289 289 289 290 290 290 290 291 291 291 291 291 291 290 290 290 290 289 289 289 289 289 288 288 288 288 289 288 288 287 287 286 288
293 297 295 295 296 295 296 297 296 291 290 295 292 283 284 293 295 293 291 290 290 292 291 291 292 292 292 292 292 293 295 294 293 293 293 294 294 295 296 296 296 296 296 298 299 300 300 300 300 300 299 298 297 296 295 294 293 292 290 288 287 286 286 286 286 286 287 288 288 289 290 291 291 291 291 291 290 290 290 290 289 289 288 288 288 288 288 288 288 288 288 288 287 288 287 286 285
290 292 299 299 297 296 296 295 294 284 282 292 296 284 283 291 292 292 289 290 290 290 290 291 292 292 291 292 292 292 292 292 293 293 293 293 294 294 295 295 294 294 295 297 297 297 298 298 297 297 296 296 297 295 294 293 291 290 289 288 287 287 286 287 288 288 288 288 289 289 289 290 290 290 290 290 290 290 289 289 288 288 288 288 288 287 287 287 287 287 287 287 287 288 287 285 284
289 296 299 298 296 295 294 294 293 289 294 294 293 291 283 284 290 292 291 290 289 289 290 291 291 291 291 292 292 292 292 291 292 292 292 293 293 293 292 293 293 293 294 294 294 295 295 295 294 294 294 293 294 294 293 292 290 290 289 288 288 287 287 287 288 288 289 289 289 288 289 289 289 290 289 289 289 289 289 288 288 288 288 287 287 287 286 286 287 287 287 287 287 287 287 285 284
293 296 299 296 297 296 295 293 290 289 288 283 287 291 284 283 290 292 292 288 289 288 289 290 290 291 291 292 292 292 292 292 292 291 291 291 291 291 291 291 292 292 293 292 293 292 293 293 292 292 292 292 292 292 291 291 291 289 289 288 288 288 289 289 289 289 288 289 288 288 288 288 288 289 289 289 288 288 288 288 287 287 287 287 287 287 286 286 286 285 285 286 285 286 286 286 285
296 298 297 296 297 295 295 289 288 286 285 282 286 291 284 284 290 288 290 289 290 290 290 291 291 290 291 291 291 292 292 292 292 292 291 291 290 290 291 291 291 291 292 293 292 292 292 291 291 291 291 291 291 291 291 290 290 290 289 289 288 288 289 289 288 288 288 287 287 287 287 287 287 287 287 288 287 288 287 287 287 286 286 286 286 286 285 285 285 285 285 285 285 284 284 285 284
298 297 295 293 292 290 289 289 287 284 282 284 289 292 289 281 288 289 288 289 293 292 291 291 291 290 291 291 291 291 291 291 291 290 290 290 290 290 290 290 290 291 291 291 291 290 290 290 289 289 290 290 291 291 291 290 290 290 289 289 289 288 288 288 288 287 287 287 287 286 286 287 286 286 286 286 287 287 286 286 286 286 286 286 285 285 285 284 284 284 285 284 284 283 283 283 284
297 292 289 290 287 287 286 284 286 280 280 283 289 290 291 282 283 292 292 293 295 293 291 290 290 290 291 290 291 291 290 290 290 290 289 289 289 289 289 289 289 289 290 290 289 290 289 289 289 289 289 290 290 291 291 291 291 290 290 290 289 289 289 288 287 286 286 286 286 286 286 285 285 286 285 285 285 286 286 285 285 285 285 285 285 285 285 285 284 284 284 283 283 283 283 283 282
294 291 289 283 282 281 278 282 277 279 279 282 283 288 286 286 291 291 291 293 294 295 294 292 291 290 290 290 290 290 290 290 289 289 288 288 288 288 288 288 288 288 288 288 289 288 288 288 288 288 288 289 290 290 290 290 290 289 289 289 289 289 288 288 287 287 286 286 285 285 285 284 284 284 284 284 285 285 285 285 285 284 284 285 285 284 284 284 284 283 283 282 282 281 281 282 281
291 289 285 282 280 278 274 278 280 280 281 282 283 286 281 286 291 296 293 292 292 293 295 293 292 291 291 290 290 290 290 289 289 289 288 288 288 288 288 288 288 288 288 288 288 287 288 288 288 288 288 288 289 289 289 289 289 289 289 289 289 288 288 287 287 287 286 286 286 285 284 284 284 284 284 284 285 285 285 285 285 285 285 284 284 284 283 283 283 282 282 282 281 281 281 281 281
291 293 291 286 284 280 275 279 277 278 280 280 283 282 280 281 286 288 289 290 291 292 294 293 293 292 291 291 290 290 289 289 289 288 288 288 289 288 288 288 287 287 287 288 287 287 287 287 287 287 287 288 288 288 288 288 289 289 288 288 288 288 288 287 287 287 286 286 285 285 285 285 284 285 284 284 285 284 284 284 284 283 283 283 283 283 283 282 282 282 282 281 281 281 280 280 280
290 293 294 286 285 287 282 282 281 279 280 278 278 280 283 286 288 289 289 289 290 292 293 293 292 292 291 290 289 289 289 289 289 289 288 288 288 288 288 288 287 287 287 287 287 287 287 287 287 287 287 288 288 288 288 288 288 288 287 287 288 288 287 287 287 287 286 286 285 285 285 284 285 284 285 284 284 284 283 283 283 282 282 282 282 281 281 280 280 280 280 280 279 283 279 279 279
288 290 285 289 292 290 284 280 280 280 279 278 282 282 285 288 287 288 288 288 289 290 292 292 291 291 290 289 289 289 289 289 289 289 289 288 288 288 288 287 287 287 287 287 287 287 287 287 287 287 287 287 287 287 287 287 287 287 287 287 287 287 287 286 286 286 286 286 285 285 284 284 285 285 286 284 283 283 282 282 281 281 281 281 280 280 280 279 279 279 279 278 278 278 279 278 279
290 283 288 292 294 291 285 280 281 279 278 280 281 280 280 282 282 286 286 286 286 288 289 291 291 290 289 289 289 290 289 290 290 290 289 289 288 288 288 287 287 287 287 287 287 287 287 287 287 287 287 287 287 287 287 287 287 287 287 287 287 287 287 286 286 286 286 285 285 285 284 284 283 284 284 284 282 281 280 281 279 279 279 278 279 278 278 278 278 279 278 278 278 278 277 278 278
290 288 295 289 282 281 285 282 277 276 277 278 279 281 283 284 286 283 284 286 286 287 289 290 289 290 289 290 290 290 290 290 289 289 289 288 288 288 288 287 287 288 287 287 288 288 287 287 287 287 287 287 287 287 287 287 287 288 287 287 286 287 287 286 286 286 285 285 284 284 283 283 283 282 282 281 280 279 279 278 278 278 278 277 277 277 277 277 277 277 278 278 277 277 277 277 278
294 294 288 291 285 284 282 284 283 282 279 277 280 282 280 287 288 286 288 288 288 288 288 289 290 290 290 290 290 290 289 289 289 289 289 289 289 289 288 287 287 287 287 287 287 287 286 287 287 286 287 287 286 286 287 286 287 287 287 286 286 287 286 286 285 285 284 284 283 283 282 281 281 281 279 279 278 278 278 277 277 277 277 277 276 276 277 276 277 276 276 277 277 276 276 276 276
285 284 283 286 285 286 285 285 284 281 278 278 278 277 281 287 290 290 291 291 290 289 289 290 291 291 291 291 291 290 290 290 289 290 289 289 288 288 287 287 287 286 286 287 286 286 286 286 286 286 286 286 286 286 286 286 286 286 286 286 286 285 285 285 284 284 283 282 282 282 281 280 279 278 278 278 277 277 277 277 276 277 276 276 276 276 276 275 275 275 275 275 275 275 275 275 275
290 288 286 289 286 283 281 281 285 283 282 278 279 279 282 290 292 290 291 292 292 292 290 290 290 291 291 291 291 291 290 290 290 290 289 289 288 288 287 287 286 285 285 285 286 285 285 285 286 286 286 285 286 286 286 286 286 286 285 285 285 284 284 284 282 281 281 281 280 280 279 279 278 278 277 277 277 277 276 276 276 275 275 275 275 275 274 274 274 274 273 276 276 274 273 274 274
Wind_Speed
10 9 5 3 3 4 3 2 1 2 1 5 3 3 2 2 2 3 6 2 5 3 3 3 4 3 3 1 2 3 10 6 6 3 2 1 1 4 4 3 2 4 6 9 9 7 5 6 10 11 13 13 13 13 13 12 12 11 11 10 10 9 9 9 9 8 8 9 9 9 10 11 11 13 12 12 12 13 14 14 14 14 14 14 15 15 15 16 15 14 14 14 14 14 13 13 12
7 8 7 5 3 1 1 3 2 1 3 5 4 3 1 1 3 6 6 7 4 2 2 2 2 2 3 3 1 3 8 8 8 5 3 5 6 4 3 5 1 6 4 9 9 7 6 6 9 12 13 14 14 13 13 12 12 11 10 10 9 9 9 9 9 8 8 8 8 8 9 10 11 12 12 13 13 13 13 14 13 13 13 14 14 14 15 15 15 14 13 13 14 14 13 13 13
7 7 6 5 3 2 4 1 1 2 4 5 3 1 3 5 5 6 7 7 5 2 1 2 1 1 5 4 1 6 3 10 8 10 5 2 1 4 3 2 4 3 5 9 8 6 6 6 9 11 14 14 14 14 12 12 12 11 10 10 9 9 8 8 8 7 8 8 7 8 8 9 11 11 12 12 13 13 14 13 13 13 14 14 14 15 15 15 14 14 13 13 14 14 14 13 13
6 5 4 3 2 3 2 1 3 4 5 5 4 4 5 5 6 6 6 5 4 1 2 2 1 0 2 8 4 3 7 5 9 3 3 3 2 2 2 1 4 0 2 5 8 7 6 7 10 10 12 14 14 14 12 12 12 11 10 10 9 9 9 8 8 7 7 7 6 6 8 9 10 11 12 12 13 14 14 13 13 13 13 13 14 15 14 14 13 13 13 13 13 13 13 13 13
4 3 4 3 1 2 1 1 2 4 6 2 4 3 5 5 6 6 4 4 3 4 4 1 1 1 2 6 4 2 3 3 10 10 3 2 3 2 1 1 2 4 3 2 10 7 9 12 9 10 11 13 14 14 12 11 11 11 9 8 9 9 9 8 7 7 6 6 6 6 7 8 10 11 12 13 14 14 13 13 13 13 13 14 14 14 14 13 13 13 13 13 13 13 13 13 13
6 3 4 2 2 0 0 2 4 6 2 1 4 4 5 5 5 5 4 5 4 3 1 3 2 1 2 4 4 2 5 2 3 5 3 2 2 2 3 3 2 5 3 2 6 9 8 12 12 11 10 10 13 13 12 12 12 12 9 10 10 9 8 8 7 7 6 5 6 6 6 9 10 11 12 13 14 14 14 14 13 13 13 13 14 14 13 12 13 12 12 13 13 13 13 12 13
3 4 1 1 3 0 2 1 6 5 4 4 4 4 5 4 2 4 5 4 2 4 1 2 2 2 3 3 6 6 7 3 4 2 3 1 1 3 2 2 1 6 4 2 9 8 10 12 11 11 11 9 11 10 11 11 10 11 10 11 10 9 8 7 7 6 5 5 5 5 7 9 10 11 12 12 12 13 14 14 13 12 12 13 13 13 13 13 12 12 12 13 13 12 12 12 12
2 1 1 1 3 1 2 6 6 3 2 6 5 7 5 4 1 1 4 1 1 1 2 3 4 3 2 3 5 3 6 9 6 4 4 3 3 3 6 4 5 4 3 7 9 7 8 11 11 11 11 11 10 9 11 11 11 10 10 11 11 10 8 6 6 5 5 4 4 5 6 8 10 11 12 11 11 13 14 13 12 12 11 12 13 13 12 12 13 13 13 13 13 12 12 12 12
2 2 0 0 2 0 2 5 4 4 4 4 5 6 6 3 3 3 4 1 4 3 4 5 4 2 2 9 7 3 6 8 8 7 5 4 4 4 5 7 6 6 5 8 8 8 7 8 9 10 9 10 10 10 10 10 7 9 10 10 11 10 9 7 5 4 4 3 6 4 9 10 11 12 12 12 12 13 13 12 11 11 11 12 12 13 13 13 13 13 13 13 13 13 12 12 12
2 2 1 1 2 1 3 4 3 2 4 4 4 4 4 1 2 3 2 5 3 0 4 2 4 3 3 10 7 4 3 6 6 6 5 5 4 4 6 6 6 4 4 4 7 7 6 8 9 8 8 8 9 10 10 10 8 7 9 9 10 10 9 8 6 4 4 3 4 6 6 7 8 8 9 12 12 12 12 12 11 11 11 12 12 13 13 13 13 13 13 13 13 12 12 12 11
2 2 1 1 3 2 2 5 5 3 4 4 4 3 3 2 1 0 1 3 1 2 4 1 1 5 4 5 4 3 7 6 8 7 3 5 4 4 5 4 4 5 5 5 5 8 7 6 9 9 8 6 8 8 9 9 9 7 8 8 8 8 8 9 7 6 5 6 5 6 7 9 9 9 7 10 12 12 12 12 11 11 11 11 12 13 13 13 13 13 13 13 13 12 12 12 11
2 0 0 2 3 4 5 5 4 4 5 4 4 3 1 2 1 2 1 1 2 3 5 5 1 2 4 4 2 4 6 11 6 3 4 4 5 3 5 3 4 5 5 2 2 5 7 6 5 6 8 7 6 8 8 9 9 7 7 7 8 7 7 8 8 6 6 8 7 7 7 7 10 9 8 9 8 11 11 11 11 11 11 11 12 12 12 12 12 12 12 12 13 13 12 12 12
0 3 3 2 2 3 1 2 4 4 3 2 4 2 1 2 1 5 3 4 3 1 5 4 1 1 1 3 5 5 11 6 4 4 2 3 5 4 4 4 5 4 3 4 3 4 4 6 6 4 6 8 6 8 8 7 8 8 7 7 7 7 7 7 8 9 9 9 9 8 7 7 9 9 8 5 6 8 11 11 11 11 11 11 11 11 11 11 10 11 10 11 12 12 13 13 12
1 1 1 1 1 1 1 3 4 3 2 4 3 3 0 1 3 3 3 3 9 6 0 1 0 4 2 5 2 4 5 5 4 3 2 2 4 4 6 4 4 4 3 2 3 3 3 1 7 7 7 4 5 6 7 8 7 8 8 7 6 7 7 7 7 9 10 10 9 9 8 9 8 9 7 3 2 8 10 9 10 11 10 10 10 10 10 9 10 9 10 10 11 12 12 12 12
2 3 1 1 1 1 1 0 2 4 3 3 0 1 2 4 2 0 2 3 4 3 3 3 1 1 1 2 2 3 5 5 4 0 1 1 3 4 6 5 4 4 3 6 5 3 3 4 3 5 7 6 6 5 5 7 8 8 7 7 5 3 7 7 6 9 10 10 10 10 10 10 8 9 8 5 5 10 10 9 10 9 10 10 9 10 9 8 8 8 8 9 9 10 11 12 11
1 3 1 1 1 0 0 1 2 1 3 3 0 3 1 4 1 1 3 2 2 1 1 1 1 2 3 6 2 2 3 4 4 1 3 2 2 4 5 6 5 4 3 3 4 6 5 4 4 3 1 6 5 5 6 8 9 10 9 7 9 6 4 7 7 7 9 10 10 10 10 10 9 8 10 5 5 9 10 9 9 8 9 10 9 10 9 8 7 7 7 7 7 8 8 8 8
0 0 1 3 0 0 1 0 1 1 3 4 2 1 1 3 2 2 1 1 3 2 2 7 3 4 6 4 3 2 4 5 8 5 4 2 3 3 6 4 5 4 3 4 4 4 3 5 3 4 3 1 3 5 4 7 9 10 8 9 9 6 4 5 6 8 7 6 8 8 9 7 6 5 7 5 7 7 8 11 10 9 9 8 9 10 9 8 7 5 5 5 5 6 6 5 6
0 1 0 2 3 5 2 5 3 5 4 4 3 3 1 1 1 3 1 2 4 3 5 6 10 9 5 3 3 3 4 7 7 7 7 6 6 6 6 5 6 5 6 5 6 3 1 2 1 4 4 3 4 0 1 5 6 8 7 6 5 6 6 3 4 4 5 4 5 6 5 6 6 5 5 6 6 6 6 7 10 10 10 9 8 9 9 7 7 5 4 3 3 5 5 3 3
1 3 0 2 3 0 4 3 7 1 4 4 4 2 2 2 1 1 2 1 5 5 6 6 8 7 6 5 4 5 6 8 7 7 8 8 7 7 6 6 6 6 6 6 4 4 5 7 1 2 3 4 2 2 1 6 7 5 5 6 5 6 6 7 4 5 4 5 5 4 4 5 5 6 6 6 5 8 6 6 7 7 7 6 7 8 8 7 6 5 4 4 3 3 2 2 2
1 1 2 3 3 4 4 5 4 5 3 2 3 3 1 1 1 2 1 4 5 4 3 5 6 6 5 5 5 5 7 6 7 7 8 7 6 6 6 6 6 5 5 5 5 5 7 6 7 6 1 3 3 2 0 2 6 6 5 5 5 5 6 5 4 4 3 3 4 4 4 2 2 5 8 10 8 6 5 5 4 4 5 3 5 5 6 5 5 4 3 3 3 2 1 4 2
2 1 3 2 3 1 3 4 5 4 5 2 1 2 2 1 2 1 2 4 3 5 5 4 5 5 5 5 5 5 6 7 6 6 7 7 6 6 6 6 5 5 4 4 7 6 6 5 7 6 6 0 4 4 0 1 2 4 6 6 6 5 5 5 4 4 1 2 3 2 1 2 2 5 6 5 5 5 5 4 3 2 2 2 4 3 3 3 2 1 1 1 3 2 5 4 6
2 2 3 3 1 3 3 6 6 3 4 1 0 2 1 1 2 2 2 3 1 1 2 4 5 4 4 3 4 4 6 6 6 7 7 7 6 6 6 4 5 4 5 6 5 6 4 5 5 6 6 3 2 4 3 1 3 1 4 6 6 4 0 2 1 1 1 0 3 1 2 3 1 3 5 4 5 5 6 5 4 4 4 3 4 4 4 5 3 3 3 2 1 4 4 4 4
1 1 4 3 3 1 1 3 2 0 1 0 1 1 3 1 3 3 1 1 3 3 4 3 4 3 3 4 4 5 5 5 6 5 6 6 6 7 6 5 5 5 5 4 5 5 6 6 6 4 6 6 3 3 4 0 3 0 4 6 4 2 3 5 5 3 1 2 4 2 1 4 0 1 3 5 3 3 6 5 5 5 4 4 5 3 3 5 4 3 2 4 4 4 3 3 2
1 0 0 4 3 2 3 3 4 1 1 1 0 1 2 3 4 1 3 4 7 4 3 4 3 3 3 6 5 5 5 5 5 5 4 5 6 7 6 6 6 4 5 6 5 4 5 7 8 4 4 6 3 3 3 0 3 2 6 8 7 6 4 3 2 3 3 2 3 3 3 2 2 2 1 2 1 3 4 5 4 5 3 3 2 1 2 2 5 4 4 3 3 3 2 1 2
2 2 2 2 1 2 1 4 3 2 3 2 1 1 4 4 2 1 5 6 6 6 4 4 3 4 5 5 4 5 5 4 5 4 4 4 5 6 5 5 5 5 7 8 6 6 6 6 9 7 4 6 3 3 2 0 5 9 9 8 9 8 8 8 8 8 6 5 5 7 6 5 6 5 5 5 2 2 2 2 2 3 5 5 5 5 5 5 4 5 3 2 2 3 2 3 2
3 3 2 0 1 2 3 3 4 5 2 3 2 5 5 6 6 1 8 6 6 5 4 4 3 4 4 4 4 4 5 5 4 4 5 4 5 5 6 6 6 7 8 7 7 6 7 8 8 10 5 4 2 4 1 9 8 9 9 9 7 8 7 7 8 7 7 7 7 7 8 7 6 6 6 4 6 5 5 7 7 6 6 6 6 6 5 5 6 4 3 2 3 4 4 3 4
1 2 2 4 5 3 3 4 4 4 2 4 4 3 4 3 5 3 3 7 6 5 5 3 4 4 4 4 4 4 5 5 5 4 5 5 6 6 6 6 8 7 7 8 7 7 7 6 8 9 5 5 7 11 9 8 9 9 8 7 8 8 7 7 8 7 7 7 6 7 6 7 6 7 7 7 7 6 7 9 8 7 7 7 7 6 6 6 6 5 5 5 5 4 2 3 5
1 1 4 6 8 7 4 4 5 1 2 4 4 4 2 0 1 2 7 6 6 6 5 4 4 4 4 4 4 3 4 4 4 5 7 7 6 6 6 7 7 7 7 7 6 7 6 7 8 8 9 11 9 9 9 9 9 9 9 8 8 8 8 8 8 8 8 7 7 7 7 6 7 7 8 7 8 7 7 9 7 8 6 5 6 6 6 6 5 4 6 5 5 5 5 5 4
1 2 3 4 5 5 8 7 5 5 1 0 3 3 4 4 4 6 7 6 5 5 5 4 5 4 3 4 4 4 4 4 5 5 5 4 4 5 6 6 7 6 4 6 7 7 9 7 7 8 9 10 10 9 10 8 8 8 8 8 7 8 9 9 9 8 8 8 9 9 9 8 7 7 8 8 9 8 7 8 8 7 5 5 5 7 6 5 5 5 5 5 5 4 4 6 5
1 4 3 5 4 6 6 7 6 4 1 4 4 1 6 9 5 6 6 6 5 5 4 4 4 3 3 3 4 4 4 5 5 4 4 4 4 5 5 6 6 6 5 4 6 8 6 5 5 6 8 11 11 9 9 9 8 8 9 8 8 9 9 9 8 7 8 8 9 10 10 10 9 8 7 8 8 8 8 8 8 6 4 4 6 6 6 5 6 8 7 3 5 5 4 4 4
1 2 3 3 2 2 0 3 5 3 2 5 1 2 3 6 5 4 5 6 6 5 5 4 4 4 3 3 4 4 5 4 5 4 4 5 4 4 6 6 7 6 5 6 7 7 7 7 5 6 7 10 11 11 11 10 8 8 9 9 9 9 8 9 8 8 9 9 9 9 11 10 9 10 10 9 10 8 8 9 9 8 8 8 8 8 6 6 7 8 7 6 5 5 5 6 3
3 1 3 2 3 0 3 5 8 5 1 4 3 2 5 6 5 5 4 5 5 5 5 5 4 4 5 4 4 5 5 4 5 5 4 5 4 4 6 6 6 6 7 6 6 6 8 8 6 7 9 10 10 10 10 9 9 10 10 10 10 9 9 9 9 9 9 9 9 10 11 11 11 11 10 9 9 9 9 9 8 8 7 7 7 6 6 6 5 5 6 6 7 7 7 8 7
4 5 3 4 4 2 1 3 3 3 4 3 6 3 4 1 5 5 5 6 5 4 6 4 5 5 4 4 4 5 5 5 5 5 4 4 4 4 5 5 5 6 6 6 6 6 8 8 8 9 10 9 11 12 13 12 10 12 11 11 11 11 11 9 8 8 9 9 9 10 10 11 12 12 12 11 10 10 9 9 9 9 8 7 7 7 7 6 6 5 7 8 8 7 8 8 8
4 4 3 3 3 1 2 1 2 1 3 3 5 5 5 2 8 6 6 7 7 6 5 6 5 4 4 4 4 4 4 5 4 3 4 3 4 5 5 4 5 5 5 5 5 6 7 7 8 8 8 9 8 9 10 11 10 12 11 10 11 11 10 8 8 8 9 8 9 10 10 9 9 10 11 9 9 9 8 9 8 8 7 7 7 8 8 8 7 7 6 7 10 10 9 9 8
1 3 3 5 4 6 4 2 4 4 4 3 4 8 8 4 7 8 8 6 6 5 6 6 5 5 4 4 4 4 4 5 4 3 3 3 3 4 4 4 4 4 5 6 6 6 6 7 7 8 10 11 11 11 10 11 10 10 10 11 11 11 10 9 9 10 9 9 10 10 11 10 10 10 9 9 9 8 8 9 10 10 9 10 10 10 11 11 10 9 7 7 9 10 7 7 7
5 4 2 3 3 3 2 2 4 5 4 4 5 6 6 5 6 4 6 6 6 5 5 5 5 5 4 4 4 4 5 5 4 3 3 3 2 4 3 4 4 4 5 5 5 5 6 6 6 7 8 7 6 7 6 7 8 8 10 10 11 11 10 10 10 10 9 10 10 11 11 11 11 11 11 10 11 10 10 10 11 11 11 11 11 12 11 10 11 11 10 7 8 8 9 8 9
2 0 2 4 4 5 5 4 3 1 2 4 5 5 7 7 5 11 8 6 5 4 6 5 5 5 5 5 4 4 5 5 3 4 3 3 3 3 3 3 4 6 6 4 5 6 5 5 6 7 5 5 6 6 5 6 8 8 10 11 11 8 9 10 11 10 10 10 11 11 12 11 12 12 12 11 11 11 11 10 11 11 10 11 11 11 10 11 11 10 9 8 7 6 7 8 11
4 2 2 4 3 6 4 2 3 2 1 2 3 6 7 9 7 4 7 8 8 8 7 7 6 5 5 5 5 4 5 4 4 4 4 3 3 3 3 3 3 7 5 5 5 6 5 6 7 7 6 8 8 7 7 8 8 7 9 8 10 8 9 10 10 10 10 10 11 11 11 11 12 12 11 11 11 11 10 10 10 10 10 10 10 10 12 12 14 12 10 9 6 6 6 9 10
2 1 2 3 4 5 6 4 5 2 4 5 5 8 8 6 6 2 11 10 5 3 3 6 7 6 5 5 5 6 6 5 4 4 4 3 3 4 3 3 4 5 5 5 5 6 6 6 7 7 7 7 7 7 7 9 8 8 10 8 10 10 9 9 9 9 9 11 11 11 11 11 11 11 11 11 11 11 10 10 10 9 10 9 10 12 11 12 10 10 9 8 7 6 6 7 10
2 3 3 5 2 3 3 3 1 3 1 2 4 9 10 11 13 6 4 4 3 4 6 6 3 6 6 6 5 6 6 6 6 5 4 4 4 3 3 3 4 5 5 5 5 6 5 6 7 8 8 7 8 8 10 11 12 11 12 12 11 11 10 8 10 10 10 12 13 11 11 11 12 11 12 11 11 11 11 10 9 10 10 9 8 8 10 10 10 10 9 9 7 8 7 9 9
4 6 4 4 4 5 5 3 3 4 4 3 5 8 9 11 12 2 1 4 4 3 3 3 2 4 5 5 5 5 7 6 6 6 4 4 4 4 4 4 4 5 5 5 4 5 5 7 8 9 8 9 10 10 12 11 12 12 10 10 9 10 9 8 9 11 10 10 11 11 11 11 11 11 11 11 10 10 10 9 8 8 9 8 8 8 8 8 8 8 9 8 10 7 8 6 9
3 5 11 8 6 6 5 5 6 4 4 4 4 4 4 3 10 11 5 2 3 4 4 4 4 3 3 4 4 3 5 6 7 6 5 5 4 4 5 5 5 5 5 4 5 5 5 6 6 6 7 8 9 10 10 8 8 8 7 8 9 9 10 9 9 9 9 10 9 7 10 10 9 9 9 9 9 9 9 9 8 9 8 8 8 8 7 7 9 10 9 7 8 9 5 7 7
1 2 2 3 6 2 2 5 1 3 3 1 1 3 7 3 4 6 4 5 4 4 5 5 6 5 5 5 6 4 4 5 6 5 5 5 5 5 5 5 5 5 4 3 4 5 6 6 6 6 6 6 5 6 6 7 9 9 9 9 8 9 11 8 7 7 8 7 7 9 8 8 9 10 9 9 9 9 9 9 9 8 8 7 7 7 8 9 8 8 8 9 8 7 8 8 8
3 1 2 4 3 1 2 2 4 5 3 1 1 3 5 9 5 3 5 6 6 5 6 6 7 6 6 6 6 6 6 5 6 6 5 5 5 5 5 5 5 5 4 4 4 5 6 6 6 6 6 7 6 7 8 8 10 9 9 9 8 9 9 9 7 7 6 7 8 9 8 8 8 9 9 9 9 8 8 8 8 8 8 7 7 7 7 6 7 6 7 7 7 7 7 7 6
1 1 3 2 2 0 1 3 4 3 1 6 5 4 2 6 2 6 8 5 6 9 8 9 8 7 7 6 7 7 7 7 6 6 5 5 5 6 5 6 5 5 4 4 4 4 5 6 7 7 8 7 8 10 10 10 9 9 9 9 11 7 9 8 6 6 7 6 8 7 8 8 8 9 8 8 8 8 8 8 8 8 8 8 7 7 7 6 7 7 7 8 8 8 7 5 5
1 1 4 3 1 1 1 2 2 3 3 8 5 6 6 10 4 2 3 3 8 9 11 9 8 9 7 8 6 7 6 6 6 6 6 6 5 6 6 6 6 4 4 4 4 5 5 6 7 8 8 7 8 10 11 10 9 9 10 9 11 9 7 8 7 8 7 6 9 8 7 7 7 7 8 7 8 8 8 7 8 8 8 7 6 7 7 7 6 7 6 5 6 6 6 6 5
5 4 3 2 1 1 1 0 0 2 8 9 8 9 7 7 3 9 8 7 8 4 5 6 8 7 7 6 8 6 6 6 6 6 6 6 5 6 6 7 5 4 4 4 4 5 5 6 8 9 7 8 8 9 10 9 8 7 8 8 9 10 8 8 8 7 7 7 8 8 7 7 6 7 6 7 7 6 6 6 6 6 6 6 6 6 7 7 6 5 6 5 6 7 6 6 5
4 2 2 1 1 2 0 1 0 2 8 3 12 12 11 10 3 1 2 3 3 12 12 12 12 11 10 8 8 7 6 5 6 7 7 6 6 6 7 7 5 5 5 4 4 4 5 6 8 10 8 8 8 8 9 9 8 8 7 8 9 8 8 7 8 8 6 7 7 8 6 6 6 6 5 5 6 5 5 6 5 5 6 6 7 6 5 6 6 5 5 6 5 5 5 6 4
2 4 3 6 1 2 2 2 3 7 8 0 1 2 5 15 7 1 3 3 4 6 10 14 14 12 10 9 10 8 7 6 6 6 6 5 6 7 7 7 6 5 5 5 5 5 6 6 8 10 8 7 8 8 9 8 7 7 8 8 8 8 8 8 8 9 6 7 7 7 6 6 6 6 5 6 5 4 4 5 5 5 6 5 5 5 5 5 6 5 4 5 5 4 5 5 6
6 7 7 5 3 4 4 3 3 4 1 2 0 1 3 2 5 11 3 3 3 2 8 10 13 14 12 11 9 9 8 7 6 6 6 5 6 6 7 7 6 6 5 6 5 5 5 7 7 10 9 8 8 8 8 9 8 8 8 8 8 8 8 8 7 8 7 7 6 7 6 6 6 6 4 5 4 4 4 4 4 5 5 5 4 5 5 5 5 5 3 4 4 3 4 4 5
10 5 9 8 7 2 3 5 7 4 1 0 3 3 6 5 5 2 3 3 3 4 8 8 9 10 10 10 9 9 8 6 6 7 6 6 6 6 7 6 6 6 6 6 5 5 6 7 8 9 10 8 8 8 8 9 8 8 7 8 8 7 8 8 8 7 7 7 6 7 6 6 6 5 5 4 4 4 5 5 5 5 5 5 5 5 5 4 5 5 3 4 4 1 4 4 4
5 5 2 3 8 1 6 1 0 1 0 1 1 5 2 4 0 2 3 4 3 3 10 11 11 10 11 10 11 10 9 8 7 7 7 6 6 6 6 6 6 6 6 5 5 5 6 7 7 8 10 9 9 8 7 8 7 7 7 9 9 8 8 8 7 7 7 7 6 6 6 5 5 4 4 4 4 4 4 4 5 4 4 4 4 4 4 4 4 5 4 4 4 2 4 5 5
5 5 7 8 1 1 1 1 1 1 3 8 4 4 6 1 1 2 2 4 2 1 8 10 11 12 11 10 10 10 10 9 9 9 8 8 6 6 6 6 6 6 6 6 6 5 7 8 8 9 8 7 8 7 8 8 8 9 8 8 8 8 8 8 8 7 7 6 6 6 6 5 4 4 4 4 4 4 4 4 4 4 4 4 4 4 4 4 4 4 4 4 4 4 4 4 5
6 3 6 2 2 3 2 3 0 2 6 5 7 8 3 3 8 2 3 4 3 4 5 10 11 11 12 10 11 11 11 10 9 7 7 8 7 7 7 6 6 7 7 7 6 5 5 6 8 10 9 10 7 8 8 8 8 8 8 9 8 8 8 7 7 8 6 6 6 6 5 6 4 4 4 3 4 4 4 4 4 4 4 4 4 4 4 4 4 4 4 4 4 4 4 4 4
1 3 1 7 3 3 3 1 6 3 7 4 3 6 7 12 8 3 6 8 9 9 6 9 12 12 12 11 10 10 9 9 10 10 9 9 9 8 8 8 7 7 6 6 6 6 6 6 6 8 10 8 9 7 7 7 7 7 7 8 8 7 7 7 6 6 6 7 6 5 5 5 5 4 4 4 4 4 4 4 4 4 4 4 4 4 4 4 4 4 4 4 4 4 4 4 5
1 2 2 0 1 1 6 7 1 2 7 2 7 7 8 7 6 14 12 14 12 11 10 12 13 13 12 12 12 13 12 11 11 10 9 9 9 9 9 10 10 9 8 7 7 6 7 7 8 7 7 7 7 8 8 8 7 8 8 7 7 7 6 7 6 7 7 6 5 5 5 5 4 4 4 4 4 4 4 3 3 4 4 4 4 4 4 4 4 4 4 6 4 4 4 5 5
4 1 2 0 1 1 1 3 5 4 3 5 5 6 3 1 3 7 12 12 14 17 17 11 11 11 11 11 13 12 12 11 11 11 10 11 10 9 8 8 8 7 6 6 6 7 7 7 7 8 9 9 8 7 7 7 7 8 9 8 8 7 8 7 7 6 6 5 5 5 5 4 4 4 4 4 4 3 3 3 3 4 4 4 4 4 4 4 4 4 4 4 4 4 4 5 4
11 13 12 13 9 4 4 9 1 3 3 4 1 12 1 1 1 5 2 9 12 13 13 12 9 10 10 10 10 11 11 10 11 10 10 10 10 9 8 7 7 8 8 8 6 6 7 7 7 7 7 7 8 8 7 8 7 8 8 8 8 7 8 7 7 6 6 5 4 4 4 4 4 4 4 4 4 3 2 3 3 4 4 3 4 3 4 3 3 3 3 3 4 4 4 4 4
Wind_Direction
299 290 264 266 279 270 312 218 318 214 197 60 78 38 68 41 276 76 44 146 72 59 24 24 17 8 3 60 329 25 48 38 28 83 129 172 51 51 53 66 37 127 122 124 124 122 127 137 148 145 146 145 141 140 138 133 133 128 127 124 121 117 115 113 112 109 106 100 98 98 96 97 104 106 102 97 95 91 87 85 81 77 74 70 66 61 55 52 45 38 36 38 36 35 34 34 34
298 309 298 257 249 347 265 149 280 100 79 77 69 115 140 141 61 46 60 58 47 68 354 42 31 324 276 271 279 204 52 59 75 90 81 99 133 82 77 15 320 125 130 126 130 135 138 138 147 148 148 144 144 146 141 136 134 130 130 126 122 120 119 119 117 113 109 106 99 96 95 97 104 104 108 105 100 96 88 82 78 75 73 70 66 61 57 53 44 39 38 40 39 36 35 34 35
307 312 310 288 218 198 302 240 280 176 114 97 77 127 243 67 65 62 55 51 57 31 42 147 99 321 314 190 70 53 82 39 68 93 83 159 273 25 41 50 342 141 137 130 136 141 137 135 148 152 150 148 148 147 146 140 137 135 133 131 126 123 123 123 119 113 111 109 105 101 101 101 107 109 105 104 101 94 87 81 76 72 68 67 65 62 57 50 44 42 42 41 39 36 36 35 33
282 274 280 352 327 143 265 195 226 345 98 124 94 22 68 89 79 76 64 59 54 326 315 38 81 235 325 55 9 106 50 56 34 46 107 52 56 331 23 63 271 94 107 131 132 145 118 132 141 153 153 150 151 149 149 143 141 138 138 134 131 127 126 127 122 121 116 109 108 105 100 104 108 107 103 103 100 91 84 77 73 72 72 68 65 63 59 51 47 44 44 44 42 38 36 34 33
269 249 234 299 17 250 303 256 353 43 38 19 111 108 88 90 89 85 71 88 62 28 353 354 136 339 17 50 13 30 313 104 52 35 93 97 350 355 103 152 252 77 125 192 139 133 136 138 139 142 160 157 151 152 147 145 145 141 138 136 133 131 134 132 132 125 123 115 116 113 111 110 107 110 108 103 96 89 83 78 74 70 71 71 70 67 62 54 51 48 46 46 46 42 39 36 34
248 243 223 155 262 352 347 316 67 68 10 289 121 96 78 84 96 107 119 99 120 66 312 43 19 19 60 39 16 56 342 34 62 59 2 50 347 315 145 206 228 130 149 218 122 115 134 136 137 146 152 162 149 159 149 149 149 145 141 138 136 135 138 140 132 132 131 131 124 122 120 116 122 116 111 104 99 92 86 82 76 73 70 71 72 69 65 58 54 52 50 48 47 46 43 40 39
329 345 212 181 272 170 255 45 82 97 359 27 98 103 96 78 111 154 130 108 76 95 352 48 333 353 116 135 83 69 39 353 59 35 40 65 34 356 328 176 88 109 143 158 83 114 131 133 138 139 146 156 149 156 152 144 148 147 147 142 139 140 141 142 132 134 144 140 131 123 120 128 119 117 112 109 103 98 96 90 87 84 79 75 72 70 68 63 59 56 53 48 47 47 45 45 44
257 41 340 320 284 111 270 86 48 56 66 43 46 95 94 92 331 15 62 22 74 97 92 35 54 331 149 188 100 81 75 69 99 69 64 49 37 37 14 5 93 121 123 75 90 100 117 125 131 132 144 151 159 155 153 152 153 148 145 144 144 142 143 143 137 135 150 141 129 124 117 122 129 127 117 117 111 105 100 96 96 94 86 81 77 75 69 66 63 58 54 50 46 45 44 45 45
210 166 193 23 255 262 44 60 99 81 106 88 63 64 67 60 26 334 115 109 134 63 39 16 354 350 310 87 98 114 90 105 84 85 65 44 50 55 36 26 41 50 50 95 108 121 111 103 110 123 141 154 155 155 159 154 154 149 144 147 147 147 145 147 141 141 129 134 121 145 140 147 143 135 128 119 113 107 101 99 98 90 85 80 78 75 71 67 64 61 54 49 47 44 42 43 44
283 151 316 269 323 222 101 134 112 88 82 73 119 114 111 144 101 346 359 98 38 54 54 30 324 31 331 112 105 31 44 52 84 71 79 52 23 73 55 37 23 59 50 76 126 118 119 111 100 108 135 151 158 153 159 149 156 159 140 147 151 151 149 148 143 147 125 105 112 115 141 138 134 109 122 119 116 112 102 97 96 91 84 80 75 71 68 65 64 61 55 50 46 42 41 40 43
285 177 160 13 259 208 176 102 99 130 104 93 70 57 62 61 7 227 44 89 33 42 114 359 333 14 324 62 71 111 54 48 50 44 57 99 51 44 83 40 36 40 54 20 77 121 128 124 110 98 96 127 151 155 154 152 158 159 149 149 159 152 151 151 147 147 138 105 98 116 136 147 131 120 128 119 119 113 109 105 98 90 87 82 77 71 66 63 61 59 57 51 47 44 40 40 40
311 27 11 282 300 51 15 96 100 90 120 125 98 108 313 96 193 258 65 68 129 161 74 15 58 350 304 132 126 95 59 35 28 42 15 102 88 56 77 65 53 41 28 41 4 124 137 134 126 108 97 94 123 144 146 155 161 160 150 162 165 159 152 157 140 136 130 117 122 113 131 146 120 126 122 121 124 114 110 110 101 95 93 87 83 77 72 66 63 61 58 54 48 43 41 40 39
319 3 330 314 321 26 358 108 108 107 152 149 118 69 252 222 2 23 35 323 154 105 57 44 335 254 300 47 143 66 44 20 4 3 30 38 117 123 96 80 68 51 34 360 38 41 110 148 139 134 120 112 103 133 142 153 162 161 164 169 180 162 153 148 138 125 125 129 125 121 130 131 128 131 114 120 117 117 117 112 107 102 97 94 90 85 78 73 69 67 64 59 55 48 41 40 38
350 10 332 326 268 76 46 73 119 151 160 98 86 139 178 327 59 15 338 302 42 61 140 68 234 38 296 110 124 34 24 6 351 2 23 77 97 92 97 86 68 64 18 19 58 68 26 2 141 152 143 157 135 119 142 153 161 166 170 166 184 166 154 148 144 125 126 127 125 115 116 124 122 120 121 97 77 121 118 117 113 110 106 103 97 90 85 79 76 72 67 65 61 57 51 44 41
348 360 296 312 51 2 73 94 173 193 100 125 90 159 149 70 55 4 357 354 79 47 133 87 39 358 30 342 80 17 348 347 334 19 111 35 83 85 105 109 106 84 48 36 21 34 34 13 6 127 160 170 174 160 151 159 170 176 165 173 150 218 158 150 145 129 125 130 130 129 129 135 135 131 127 113 130 136 128 118 121 120 121 112 103 99 94 87 84 75 73 72 71 67 63 57 47
354 352 272 287 152 156 328 191 32 5 107 94 138 97 200 122 106 277 53 26 298 64 339 152 4 29 20 70 47 349 0 346 326 13 141 111 114 151 143 137 107 107 98 103 71 32 6 12 339 6 169 173 181 181 171 162 167 176 168 155 165 199 185 150 149 133 130 136 139 141 142 139 134 138 139 133 142 139 136 133 131 134 128 125 119 114 111 102 92 81 80 83 89 89 75 71 61
298 170 354 239 54 128 166 190 140 57 131 102 182 184 307 131 223 60 92 324 288 146 114 49 64 49 57 73 72 18 29 11 359 23 24 83 155 132 62 48 101 93 86 69 65 77 25 338 337 330 314 329 166 179 184 154 160 166 168 165 153 178 146 154 150 121 117 124 137 146 146 144 147 144 149 147 148 147 154 142 142 141 142 140 138 129 125 116 103 98 90 97 108 115 110 93 83
257 245 274 291 89 65 340 32 63 173 114 145 99 6 354 126 138 94 249 214 236 265 93 90 75 73 90 93 58 61 54 35 21 40 28 26 19 39 45 30 38 54 35 24 34 26 76 174 329 332 334 335 333 121 130 127 141 163 169 159 161 165 143 201 143 151 149 143 140 146 167 168 160 153 164 146 155 154 152 159 152 157 154 157 143 136 136 127 127 122 121 131 121 134 141 116 99
6 310 322 72 24 90 16 59 38 6 81 79 100 48 14 59 336 73 339 292 178 248 117 113 100 107 94 66 45 52 49 44 32 41 46 31 25 37 35 21 38 22 35 9 1 30 9 348 31 250 305 318 325 342 53 112 149 172 160 161 167 170 165 189 177 170 172 155 157 177 205 215 161 152 158 156 155 146 148 168 175 151 155 153 135 141 140 142 146 150 169 136 178 174 186 219 142
55 62 351 60 74 76 47 51 80 40 9 85 74 83 12 51 351 28 310 313 304 17 101 133 116 94 72 59 43 41 46 50 41 39 48 39 32 28 29 20 21 26 24 336 5 24 15 359 347 336 282 311 337 296 234 142 157 178 156 163 161 170 168 183 195 185 184 171 173 188 207 295 108 129 137 136 126 138 149 161 160 168 150 89 137 130 141 147 153 175 193 216 170 207 200 30 21
345 324 31 67 349 90 51 67 71 56 18 30 5 54 264 44 66 12 300 317 48 94 42 27 65 73 68 70 54 39 47 46 42 41 44 40 37 34 22 27 17 12 7 348 17 360 18 345 344 330 324 4 314 304 258 226 186 159 148 150 153 168 179 174 178 206 177 186 182 194 136 69 4 116 128 136 149 145 150 155 168 198 144 128 166 140 144 139 160 221 261 294 286 87 60 36 24
315 41 94 65 327 77 71 72 40 71 51 327 27 274 20 9 255 209 226 249 105 46 26 50 56 55 63 51 62 53 51 49 45 38 41 40 37 29 18 18 14 18 356 26 358 350 349 345 340 325 319 287 241 279 270 122 53 52 117 144 143 120 40 94 55 51 170 271 322 9 35 104 83 119 126 151 167 164 160 162 175 193 182 173 196 162 175 161 202 205 208 207 128 66 74 63 39
345 64 58 38 60 32 111 105 78 304 130 275 282 47 350 319 302 262 96 37 128 73 80 74 76 65 93 74 57 60 53 51 48 43 38 37 38 37 18 18 8 11 7 14 13 345 345 344 326 312 301 295 212 273 297 112 107 4 80 86 83 67 159 152 150 182 86 90 229 257 80 43 206 165 176 179 216 173 166 177 177 189 194 181 181 185 181 177 196 180 116 75 74 70 67 86 80
244 138 38 73 9 349 101 99 143 165 55 263 25 352 296 306 276 29 97 111 105 105 102 103 87 94 66 68 67 71 61 50 55 62 50 48 42 44 24 12 8 21 3 11 3 349 341 326 304 278 275 275 199 229 261 136 147 87 78 68 54 44 74 42 86 97 70 42 19 349 353 62 356 50 27 257 121 155 186 170 166 186 173 197 169 82 108 65 50 71 69 60 62 96 68 78 112
304 66 27 92 328 251 136 138 176 197 230 258 306 254 244 214 241 144 116 126 128 123 125 98 120 91 70 70 70 71 68 48 43 51 73 66 44 58 34 24 14 17 17 6 0 355 331 323 311 282 264 270 204 184 215 292 59 51 51 56 54 50 46 50 45 44 40 52 73 51 44 39 38 34 26 8 34 36 355 33 85 71 44 34 66 59 49 56 63 78 71 49 20 72 74 15 33
354 50 292 65 240 228 199 192 198 191 218 185 216 244 253 245 72 288 122 120 123 124 104 131 113 90 84 84 71 66 67 56 37 42 48 54 49 40 39 22 11 20 9 0 355 349 327 318 321 331 274 272 199 151 45 55 68 67 57 55 63 54 52 51 53 48 40 40 42 49 46 46 48 41 44 22 36 47 53 53 43 49 47 34 48 49 37 57 37 34 48 43 26 50 67 15 30
283 350 323 284 272 281 199 222 238 194 197 158 198 236 262 110 113 226 107 129 132 129 121 118 111 96 90 86 67 59 67 54 51 33 39 46 32 31 36 23 15 6 4 357 353 343 323 330 327 341 303 9 43 65 66 65 67 70 64 62 59 57 57 54 56 53 46 42 31 33 56 57 56 49 53 54 44 26 47 53 39 31 39 30 31 35 32 49 57 48 33 45 33 20 57 62 32
297 13 289 264 249 240 245 219 236 119 224 198 214 251 112 49 102 239 142 142 154 135 134 131 115 110 108 91 90 61 66 65 44 50 39 28 34 16 30 22 7 0 7 355 344 325 334 335 351 358 17 56 62 68 69 70 66 72 74 70 62 63 57 54 51 44 43 37 34 31 32 46 54 58 57 52 69 56 50 62 55 46 29 41 51 44 31 30 38 38 39 35 21 9 28 35 26
347 274 307 292 289 244 198 206 198 152 233 205 158 268 230 167 221 125 136 153 160 140 137 137 126 123 100 101 86 69 67 53 56 45 38 43 44 27 30 34 12 354 4 350 335 335 357 348 15 2 35 53 63 65 69 71 71 64 71 66 66 64 59 56 50 43 41 37 36 35 32 30 43 55 53 62 65 69 61 63 65 61 44 33 37 59 52 47 50 39 38 43 33 28 34 30 18
284 245 224 301 267 251 214 162 114 151 139 157 99 311 248 192 128 132 131 156 160 142 152 148 134 120 120 114 107 91 51 71 57 56 49 46 56 38 37 31 18 9 357 343 342 3 5 18 15 26 43 60 62 65 67 67 63 65 64 61 59 62 57 56 50 44 40 39 36 34 36 36 38 39 46 53 54 57 55 49 49 43 32 45 45 51 49 32 36 32 15 32 53 42 46 40 32
250 324 143 237 341 238 354 120 157 158 147 170 167 209 323 125 122 140 165 152 171 170 157 154 137 132 129 114 119 107 98 78 80 66 59 61 47 59 42 32 25 15 356 3 2 359 25 28 24 50 54 69 71 72 70 68 65 73 66 63 59 60 61 59 51 44 40 37 38 34 35 31 39 44 42 46 47 48 50 50 45 36 31 37 39 32 42 35 38 37 25 29 38 28 27 23 1
217 327 258 189 193 153 195 134 166 164 243 241 153 284 251 160 158 155 174 164 186 184 156 146 144 143 140 152 134 124 116 103 87 66 58 67 54 54 51 36 32 21 11 3 5 12 37 35 45 63 66 69 71 74 76 71 69 72 70 65 64 59 61 56 54 53 52 48 44 43 38 38 34 39 44 48 53 44 46 47 40 28 27 38 37 33 32 36 40 53 35 35 28 25 20 15 9
196 178 286 299 226 181 120 216 208 335 127 199 182 239 77 149 156 168 171 182 191 204 154 152 147 146 148 136 133 128 130 118 87 73 58 63 57 68 49 46 41 31 20 12 15 33 48 43 42 58 63 75 81 80 82 81 76 76 76 74 72 68 63 59 54 57 56 53 49 48 43 46 47 46 47 48 54 50 49 48 39 36 31 37 38 35 32 24 35 37 47 47 44 25 21 12 2
245 166 223 250 241 270 242 41 275 199 217 185 223 237 256 124 164 173 184 191 191 202 169 158 152 159 133 129 141 143 131 108 87 74 65 60 77 69 67 60 46 47 38 24 28 35 50 53 59 67 70 70 77 81 82 84 81 81 81 79 73 71 68 65 61 57 55 50 49 47 41 41 47 55 54 53 59 60 59 57 53 44 41 43 42 37 30 20 20 32 44 53 48 32 18 9 348
259 131 225 262 249 218 228 210 181 185 206 274 200 220 251 204 180 176 188 196 193 210 166 157 158 146 146 157 135 127 111 99 95 85 77 72 62 68 77 67 55 51 48 39 32 45 56 66 77 72 80 82 86 87 87 88 89 85 78 73 68 65 61 56 53 56 52 49 48 47 43 39 34 35 44 48 51 49 51 49 47 39 36 37 37 33 29 22 21 13 36 46 53 44 17 3 343
297 344 1 348 344 327 297 54 170 176 181 225 247 248 254 265 169 181 187 197 200 204 133 147 151 150 154 148 138 130 114 100 96 88 78 90 68 83 77 86 66 67 71 48 52 55 58 64 73 75 73 72 65 75 82 87 85 77 77 73 67 61 61 60 53 54 51 51 49 49 47 46 40 38 37 41 48 46 44 41 44 39 38 38 38 36 28 25 20 17 8 35 48 33 20 6 356
319 59 258 264 292 284 291 299 140 47 8 241 239 258 266 262 243 189 179 187 201 193 153 164 164 160 159 151 140 131 113 114 121 116 107 97 106 81 84 85 93 78 69 56 66 53 43 60 65 64 57 64 74 72 62 69 78 83 74 71 76 66 66 65 60 52 53 51 51 52 50 49 46 44 41 42 46 46 47 44 43 42 41 41 41 37 31 28 26 24 16 14 44 42 17 9 2
274 289 304 296 271 270 272 272 196 97 176 262 308 295 274 273 274 190 172 164 204 193 180 174 171 160 147 144 135 136 111 125 145 120 109 103 94 102 85 67 82 86 73 72 70 68 53 48 59 60 55 60 64 64 70 64 56 62 86 73 81 70 65 65 64 54 56 55 53 52 52 50 50 49 45 46 48 48 48 44 42 40 40 41 43 38 32 29 26 25 20 13 6 42 29 13 12
321 276 270 279 248 272 273 265 132 122 114 261 245 253 265 263 264 152 176 182 193 185 180 173 159 150 145 147 149 129 132 143 131 110 116 103 99 93 89 85 76 82 82 71 68 75 62 57 61 63 57 60 61 64 71 79 78 74 85 89 87 86 70 73 77 72 65 63 57 54 52 52 51 51 48 47 49 45 47 47 42 38 39 37 39 36 31 30 23 24 24 24 1 10 28 13 21
255 264 245 234 257 261 289 57 154 174 209 288 327 297 275 270 258 223 181 162 78 68 63 46 86 150 156 158 154 147 144 139 138 144 133 127 119 99 92 85 75 73 69 66 70 79 73 73 76 76 72 69 74 73 82 83 88 90 83 90 86 84 90 79 75 67 62 59 55 52 50 49 49 51 47 48 49 47 45 46 43 42 39 35 42 46 38 32 23 19 19 24 24 19 17 10 17
213 211 233 257 239 232 202 249 184 153 230 238 282 283 278 247 243 149 58 68 107 100 71 102 35 50 74 77 113 147 147 141 131 131 136 141 117 102 102 97 88 77 64 57 67 73 82 84 90 92 89 92 94 96 96 101 101 97 97 91 85 84 69 66 67 59 56 58 62 50 48 48 49 51 48 48 50 50 48 47 47 46 47 40 40 44 42 36 30 23 19 22 26 29 15 12 6
255 209 199 220 246 272 300 332 354 356 315 211 165 324 283 235 210 190 148 133 185 169 166 188 171 140 144 139 124 72 112 129 144 143 145 132 123 118 103 100 91 85 72 62 55 71 82 86 83 87 98 103 108 112 114 112 105 104 99 91 88 84 77 66 63 71 64 59 62 60 57 53 55 57 54 54 53 54 52 49 49 48 46 44 41 43 41 35 30 29 20 21 24 21 26 23 18
223 266 357 231 219 225 340 294 353 293 243 316 104 172 273 354 335 164 156 177 191 148 195 193 175 173 177 174 149 149 138 117 108 119 124 121 133 119 105 95 93 87 74 68 74 78 78 79 79 79 77 68 75 80 79 79 78 79 87 92 95 97 99 82 90 81 85 84 77 68 65 57 55 58 54 53 53 52 53 51 50 50 49 48 43 45 42 37 29 30 22 26 23 19 25 35 22
245 312 354 52 53 84 225 250 206 246 325 263 133 172 263 292 248 133 162 172 184 187 210 196 177 173 183 169 158 159 156 141 136 144 141 136 135 124 112 98 92 93 88 74 73 72 83 88 88 82 72 69 69 81 81 83 92 93 96 96 92 92 97 106 99 102 94 95 87 79 73 63 56 57 58 53 52 52 52 50 49 49 48 42 41 41 43 39 37 29 33 29 23 25 26 37 17
162 270 71 66 66 281 329 213 245 244 359 263 171 220 307 251 275 138 157 175 205 213 198 200 177 175 177 159 157 157 151 147 144 135 130 122 112 109 102 95 87 78 72 84 90 91 87 89 89 83 78 78 80 87 91 89 94 101 102 107 103 95 100 105 103 93 91 84 86 80 75 69 60 54 54 57 51 51 51 52 47 47 45 42 41 38 31 34 41 34 27 30 30 23 22 22 34
145 127 65 74 100 59 237 279 257 291 252 242 188 185 224 276 185 163 198 249 230 214 191 187 177 170 170 155 147 145 138 137 136 130 121 108 103 100 105 99 89 92 94 90 89 88 92 95 93 92 89 89 94 93 95 97 101 107 107 110 111 111 105 101 100 94 91 85 83 78 74 72 64 58 51 47 51 48 48 50 53 49 46 41 41 39 33 26 29 35 30 34 31 36 16 21 39
150 123 91 78 90 202 15 352 143 360 250 238 200 208 181 287 204 191 169 212 214 151 146 162 159 158 156 148 147 145 141 137 131 123 113 111 114 115 109 105 104 93 91 90 92 103 103 99 100 96 96 96 96 97 100 103 105 107 110 111 110 113 112 110 109 97 92 91 86 81 76 73 70 66 54 46 48 45 46 48 52 53 49 43 39 35 34 27 13 31 29 24 30 36 17 6 20
130 129 128 128 323 41 324 278 209 213 265 213 194 209 195 224 292 100 192 333 163 154 167 168 167 166 160 151 151 144 141 135 128 123 121 122 118 111 111 113 115 112 103 97 100 99 103 104 105 101 94 96 97 100 100 100 102 102 103 105 104 104 107 107 103 104 99 94 91 86 80 75 67 67 59 58 50 46 48 47 47 48 48 45 39 31 30 27 14 13 37 24 19 34 16 5 8
142 131 130 124 231 65 266 145 224 209 243 266 358 212 211 236 241 167 198 156 128 157 164 169 164 160 153 149 150 148 145 141 138 132 133 134 132 132 125 120 124 124 120 121 116 113 112 111 111 110 106 103 102 105 104 103 101 101 103 102 100 101 101 100 96 94 94 91 94 93 86 85 77 67 54 55 43 52 59 53 49 49 45 44 46 37 18 31 16 6 34 31 13 37 16 1 357
167 168 160 132 202 214 244 198 222 267 261 292 318 293 273 320 241 252 186 56 31 52 150 153 156 158 152 150 148 146 146 149 144 139 142 141 141 134 128 133 129 129 126 123 126 122 120 118 119 114 115 112 109 105 104 104 101 103 102 104 102 101 96 95 94 96 97 97 97 101 100 95 89 88 82 67 55 46 49 63 64 52 48 43 45 39 21 25 13 1 13 42 7 8 24 358 341
200 179 167 185 173 184 245 183 214 216 205 302 290 101 234 119 243 27 69 0 28 359 116 129 135 136 138 140 138 138 145 148 146 144 149 148 146 136 138 135 133 132 131 128 130 131 124 123 124 122 116 113 111 109 109 108 108 105 104 102 100 99 100 97 95 95 96 100 96 98 97 93 94 94 95 103 72 49 40 43 53 52 40 37 33 38 24 18 8 357 8 29 350 16 22 351 327
201 194 194 233 225 126 212 168 35 18 309 233 274 202 220 197 27 63 78 55 21 21 116 124 132 134 139 145 150 155 155 154 150 149 148 146 144 138 137 134 137 135 132 134 133 133 131 130 126 124 122 122 118 117 114 114 109 103 98 99 99 100 99 98 96 93 91 92 98 95 94 95 96 96 83 73 66 67 43 44 48 52 44 41 31 40 32 13 4 1 357 6 344 350 26 345 321
207 144 214 199 55 97 324 7 48 51 9 253 148 287 295 5 292 173 159 105 81 290 134 136 142 146 147 156 160 161 160 158 156 159 156 149 142 146 143 142 141 138 137 139 145 146 143 136 130 124 122 118 119 118 116 113 111 109 106 102 101 100 101 104 107 104 102 100 100 101 100 100 94 85 82 81 69 66 57 56 53 47 44 35 33 33 28 13 3 351 351 351 347 351 15 335 324
104 196 221 72 52 79 135 244 33 180 243 266 152 196 246 128 261 155 144 163 162 208 172 154 149 153 160 167 169 168 165 163 155 150 150 149 150 151 145 145 145 148 145 140 145 145 138 137 137 132 132 128 124 122 120 120 116 110 107 104 101 105 110 109 109 113 114 109 98 95 93 88 88 86 85 79 78 65 52 47 54 38 41 35 37 29 22 12 5 344 350 349 337 13 353 328 315
127 181 326 140 240 260 224 94 249 239 239 270 234 201 221 188 215 134 208 190 186 187 194 163 163 170 171 168 169 166 155 153 159 162 158 159 158 157 154 151 148 149 143 141 141 137 135 135 138 138 136 135 132 126 118 110 110 113 115 115 115 112 110 110 108 105 104 103 103 102 101 100 85 77 73 71 62 59 56 38 50 37 43 31 35 24 20 9 0 2 355 352 339 356 340 322 311
76 341 345 68 95 218 152 197 238 126 261 257 262 157 252 193 211 180 198 198 177 171 186 193 180 175 172 170 172 171 168 167 167 166 164 161 160 160 158 156 155 155 148 145 145 143 144 146 143 138 130 127 123 121 121 119 119 118 115 110 109 114 112 110 108 107 107 109 112 109 103 93 96 85 77 81 72 65 53 52 31 49 45 27 36 19 13 14 2 358 350 341 328 343 336 324 317
215 119 279 271 185 264 93 305 193 188 226 229 275 274 271 242 351 187 194 183 176 177 186 187 180 176 176 173 172 172 171 170 172 169 164 163 162 157 155 155 150 142 140 141 150 154 153 150 147 146 141 137 131 130 125 126 123 121 119 121 121 115 107 105 105 106 106 106 103 102 110 117 94 85 75 79 76 68 49 61 46 44 58 23 38 18 3 22 354 349 340 331 329 336 330 317 318
197 184 199 189 163 161 191 251 131 214 170 240 200 259 248 300 14 346 169 177 175 186 175 177 175 172 174 170 173 172 172 173 172 170 164 161 158 157 152 148 144 143 148 152 157 153 155 156 154 146 138 140 140 135 137 132 128 128 126 124 120 115 113 111 110 109 108 108 105 108 120 109 109 108 101 92 85 74 50 60 50 51 50 27 35 28 5 14 346 342 332 329 333 332 324 314 319